Find Starlink 11318

NORAD ID: 61252 Int'l Des: 2024-175 Owner: SPXS Country: US Constellation: starlink operational
又名: STARLINK-11318 [DTC] celestrak
LEOCIRCULAR

当前视图

正在加载3D地球...

About Starlink 11318

Starlink 11318 (NORAD 61252) is a starlink constellation satellite (v2 mini d2c) launched Sep 25, 2024 by SPXS of US. It operates in LEO, CIRCULAR orbit with a mass of 960.00 kg.

即将过境

Passes for default location (London). Set your location on the main map for personalized predictions.

高度历史

Loading altitude history...

两行轨道根数

1 61252U 24175K 26262.24811756 .00004333 00000-0 40639-4 0 9996
2 61252 53.1572 182.3345 0001048 70.6051 289.5080 15.69687658114930
Epoch: Sep 19, 2026 • Age: 51 hours

当前状态

高度 364.1 km
远地点 / 近地点 N/A
速度 7.70 km/s
星下点 45.96°N, 168.11°E
发射日期 Sep 25, 2024
运行时间 1.9 years
类型 internet

技术详情

分类 Payload
质量 960.00 kg
干质量 910.00 kg
长度 0.30 m
跨度 29.00 m
形状 ? Box + pan
制造商 SPXS
平台类型 Starlink V2MD
阶段状态 In Orbit
所有者/国家 SPXS/US

Most Searched